{"data":{"norad_id":61196,"epoch":"2026-05-25T03:29:11.141376Z","epoch_age_seconds":62416,"freshness":"FRESH","line1":"1 61196U 24170B   26145.14526784  .00000065  00000+0  13194-3 0  9993","line2":"2 61196  44.8581 239.7191 0007210 341.8918  18.1655 13.99138840 85826","mean_motion":13.9913884,"eccentricity":0.000721,"inclination_deg":44.8581,"raan_deg":239.7191,"arg_perigee_deg":341.8918,"mean_anomaly_deg":18.1655,"bstar":0.00013194,"rev_number":8582,"period_min":102.92045069666,"perigee_km":891.53350210265,"apogee_km":902.02393056561,"semimajor_km":7274.9157163341,"source":"CELESTRAK","updated_at":"2026-05-25T13:38:02.313787Z"}}